This is the latest recevied weather packets stored in our database for station/object WA6GRA. If no packets are shown the sender has not sent any weather packets the latest 10 day(s).
| Time | Temp. | Humidity | Pressure | Rain* | Wind** | Luminosity | Snow |
|---|---|---|---|---|---|---|---|
| 1777605620 | 25° C | 46% | 1010.1 hPa | 0 mm | - | 0 W/m² | - |
| 1777605016 | 25° C | 46% | 1009.9 hPa | 0 mm | - | 0 W/m² | - |
| 1777604414 | 25.56° C | 44% | 1009.8 hPa | 0 mm | - | 0 W/m² | - |
| 1777603811 | 25.56° C | 44% | 1009.6 hPa | 0 mm | - | 2 W/m² | - |
| 1777603209 | 26.11° C | 43% | 1009.8 hPa | 0 mm | - | 6 W/m² | - |
| 1777602606 | 26.67° C | 42% | 1009.9 hPa | 0 mm | - | 14 W/m² | - |
| 1777602002 | 26.67° C | 41% | 1009.8 hPa | 0 mm | - | 23 W/m² | - |
| 1777601400 | 27.22° C | 40% | 1009.6 hPa | 0 mm | - | 35 W/m² | - |
| 1777600799 | 27.78° C | 39% | 1009.6 hPa | 0 mm | - | 48 W/m² | - |
| 1777600196 | 27.78° C | 39% | 1009.6 hPa | 0 mm | - | 65 W/m² | - |
| 1777599595 | 27.78° C | 39% | 1009.6 hPa | 0 mm | - | 83 W/m² | - |
| 1777598994 | 28.33° C | 39% | 1009.5 hPa | 0 mm | - | 102 W/m² | - |
| 1777598393 | 28.33° C | 38% | 1009.7 hPa | 0 mm | - | 123 W/m² | - |
| 1777597791 | 28.89° C | 38% | 1009.6 hPa | 0 mm | - | 146 W/m² | - |
| 1777597187 | 28.33° C | 37% | 1009.6 hPa | 0 mm | - | 172 W/m² | - |
| 1777596586 | 28.89° C | 38% | 1009.6 hPa | 0 mm | - | 197 W/m² | - |
| 1777595986 | 28.33° C | 38% | 1009.4 hPa | 0 mm | - | 227 W/m² | - |
| 1777595382 | 28.89° C | 37% | 1009.4 hPa | 0 mm | - | 256 W/m² | - |
| 1777594781 | 28.33° C | 38% | 1009.5 hPa | 0 mm | - | 288 W/m² | - |
| 1777594179 | 28.89° C | 37% | 1009.6 hPa | 0 mm | - | 319 W/m² | - |
| 1777593578 | 28.33° C | 38% | 1009.7 hPa | 0 mm | - | 353 W/m² | - |
| 1777592972 | 28.33° C | 39% | 1009.8 hPa | 0 mm | - | 385 W/m² | - |
| 1777592369 | 28.33° C | 38% | 1009.8 hPa | 0 mm | - | 416 W/m² | - |
| 1777591769 | 28.33° C | 39% | 1009.8 hPa | 0 mm | - | 449 W/m² | - |
| 1777591166 | 28.33° C | 40% | 1010 hPa | 0 mm | - | 482 W/m² | - |
* Rain latest hour (hover to see other rain measurements)
** Current wind speed in m/s (hover to see current wind gust speed)